Content
SEND FEEDBACK

Daily
Averages
Monthly
Summary
United States of America

MILLER, NEBRASKA


Home > North America > United States > Nebraska
Elevation: 2310 feet     Latitude: 40 56N     Longitude: 099 24W

WEATHER
 
SELECT A DAY
Number of Records: 437,646;   Date Range: 10/21/96 - 8/12/14
 
SHARE

PRINT THIS DATA

[ ← Previous Day ]
WEATHER ALMANAC - FEBRUARY 1, 2013
[ Next Day → ]
[ °C ]   °F
Weather ElementAverageHighLow
Temperature32.1 °F52 °F (4:15 pm)13.1 °F (12:35 am)
Dewpoint21.4 °F30.2 °F (10:55 pm)4.1 °F (12:35 am)
Humidity66.9 %83 % (11:55 pm)36 % (4:15 pm)
Barometer30.08 in30.24 in (12:35 am)29.95 in (3:35 pm)
Wind Speed9.1 mph17.3 mph (11:15 am)
Wind Gust24.2 mph (11:35 am)
Weather ElementAverage
Visibility10 mi
Wind DirectionWSW (232.5 °)

Weather ElementTotal
Precipitation0.03 in
Heating Degree Days32.5 (Base 65)
Averaged from 68 records on February 1, 2013
WEATHER CONDITIONS BREAKOUT
WIND DIRECTION BREAKOUT
WEATHER BY HOUR - FEBRUARY 1, 2013
[ °C ]   °F
Local TimeTemperatureDewpointHumidityBarometerVisibilityWind DirectionWind SpeedGust SpeedPrecipitationEventsConditions
12:35 AM13.1 °F4.1 °F67 %30.24 in10.0 miSSE (160°)8.1 mphScattered Clouds
12:55 AM13.5 °F5.2 °F70 %30.24 in10.0 miSSE (150°)6.9 mphMostly Cloudy
1:15 AM14.0 °F6.1 °F71 %30.24 in10.0 miSSE (160°)5.8 mphOvercast
1:35 AM14.0 °F6.6 °F72 %30.23 in10.0 miSE (140°)5.8 mphOvercast
1:55 AM14.0 °F6.6 °F72 %30.22 in10.0 miSSE (150°)5.8 mphScattered Clouds
2:15 AM13.6 °F7.0 °F75 %30.21 in10.0 miSSE (160°)4.6 mphScattered Clouds
2:35 AM13.8 °F7.7 °F77 %30.21 in10.0 miSouth (170°)6.9 mphClear
2:55 AM14.4 °F8.4 °F77 %30.20 in10.0 miSSE (160°)6.9 mphScattered Clouds
3:15 AM14.0 °F8.6 °F79 %30.20 in10.0 miSSE (160°)5.8 mphScattered Clouds
3:35 AM14.4 °F9.3 °F80 %30.18 in10.0 miSouth (170°)6.9 mphScattered Clouds
3:55 AM15.4 °F10.4 °F80 %30.18 in10.0 miSSE (150°)3.5 mphMostly Cloudy
4:15 AM15.8 °F10.9 °F81 %30.18 in10.0 miCalmOvercast
4:35 AM16.7 °F11.8 °F81 %30.17 in10.0 miSouth (180°)3.5 mphOvercast
4:55 AM18.1 °F13.1 °F81 %30.17 in10.0 miSW (220°)3.5 mphOvercast
5:15 AM18.5 °F13.5 °F81 %30.16 in10.0 miSSW (210°)3.5 mphOvercast
5:35 AM19.4 °F14.5 °F81 %30.15 in10.0 miSouth (190°)4.6 mphOvercast
5:55 AM20.1 °F15.1 °F81 %30.15 in10.0 miSSW (200°)3.5 mphOvercast
6:15 AM20.7 °F15.8 °F81 %30.14 in10.0 miCalmOvercast
6:35 AM21.4 °F16.5 °F82 %30.13 in10.0 miCalmOvercast
6:55 AM25.0 °F19.8 °F81 %30.13 in10.0 miSW (220°)15.0 mphOvercast
7:15 AM26.4 °F20.7 °F79 %30.11 in10.0 miSW (220°)15.0 mphOvercast
7:35 AM27.3 °F21.4 °F78 %30.11 in10.0 miSW (230°)12.7 mphOvercast
8:15 AM27.1 °F21.2 °F78 %30.10 in10.0 miWSW (240°)10.4 mphOvercast
8:35 AM27.5 °F21.4 °F78 %30.11 in10.0 miWSW (240°)6.9 mphMostly Cloudy
8:55 AM28.0 °F21.9 °F78 %30.10 in10.0 miSW (230°)11.5 mphScattered Clouds
9:15 AM28.6 °F22.1 °F77 %30.10 in10.0 miSW (230°)12.7 mphScattered Clouds
9:35 AM29.3 °F22.1 °F75 %30.09 in10.0 miWSW (240°)11.5 mph16.1 mphMostly Cloudy
9:55 AM30.2 °F22.6 °F73 %30.09 in10.0 miWSW (250°)6.9 mphOvercast
10:15 AM30.9 °F22.8 °F72 %30.08 in10.0 miWSW (240°)10.4 mphOvercast
10:35 AM31.8 °F23.0 °F70 %30.07 in10.0 miWSW (240°)13.8 mph19.6 mphOvercast
10:55 AM33.6 °F24.3 °F69 %30.07 in10.0 miWSW (240°)12.7 mphScattered Clouds
11:15 AM35.1 °F24.3 °F65 %30.07 in10.0 miWSW (250°)17.3 mph21.9 mphClear
11:35 AM36.5 °F24.8 °F63 %30.06 in10.0 miWSW (240°)15.0 mph24.2 mph0.03 inClear
12:15 PM40.6 °F25.5 °F55 %30.04 in10.0 miSW (230°)15.0 mph21.9 mphScattered Clouds
12:35 PM43.2 °F25.9 °F51 %30.03 in10.0 miSW (220°)12.7 mph20.7 mphClear
12:55 PM43.7 °F25.7 °F49 %30.01 in10.0 miSSW (200°)15.0 mphClear
1:15 PM44.2 °F25.7 °F48 %30.00 in10.0 miSW (220°)13.8 mph19.6 mphClear
1:35 PM44.8 °F26.1 °F48 %30.00 in10.0 miSSW (210°)13.8 mph18.4 mphClear
2:15 PM45.3 °F26.6 °F48 %29.98 in10.0 miSSW (210°)16.1 mphScattered Clouds
2:35 PM47.5 °F27.0 °F45 %29.97 in10.0 miSSW (210°)13.8 mphScattered Clouds
2:55 PM48.2 °F26.6 °F43 %29.96 in10.0 miSSW (210°)13.8 mph19.6 mphClear
3:15 PM48.0 °F26.4 °F43 %29.96 in10.0 miSW (220°)17.3 mphScattered Clouds
3:35 PM48.7 °F26.4 °F42 %29.95 in10.0 miSW (220°)13.8 mphScattered Clouds
3:55 PM50.7 °F26.4 °F39 %29.96 in10.0 miWSW (250°)11.5 mphScattered Clouds
4:15 PM52.0 °F25.9 °F36 %29.95 in10.0 miWest (260°)9.2 mph17.3 mphOvercast
4:35 PM50.7 °F25.2 °F37 %29.96 in10.0 miWNW (300°)12.7 mphOvercast
4:55 PM49.8 °F25.7 °F39 %29.96 in10.0 miWNW (300°)8.1 mphOvercast
5:15 PM49.1 °F26.2 °F41 %29.96 in10.0 miWNW (290°)8.1 mphOvercast
5:35 PM47.5 °F26.4 °F44 %29.97 in10.0 miWNW (300°)8.1 mphOvercast
5:55 PM47.7 °F27.5 °F46 %29.97 in10.0 miNW (320°)12.7 mph19.6 mphOvercast
6:15 PM46.6 °F28.0 °F49 %29.98 in10.0 miNW (320°)11.5 mph18.4 mphOvercast
6:35 PM44.2 °F28.9 °F55 %29.99 in10.0 miNW (320°)9.2 mphMostly Cloudy
6:55 PM40.1 °F28.0 °F62 %30.00 in10.0 miNW (310°)8.1 mphScattered Clouds
7:15 PM37.4 °F26.8 °F66 %30.00 in10.0 miWest (270°)6.9 mphClear
7:35 PM35.6 °F26.8 °F70 %30.01 in10.0 miWNW (300°)10.4 mphScattered Clouds
7:55 PM32.2 °F25.3 °F76 %30.03 in10.0 miWNW (300°)8.1 mphScattered Clouds
8:15 PM36.0 °F28.0 °F73 %30.04 in10.0 miNW (310°)10.4 mphOvercast
8:35 PM36.9 °F28.2 °F71 %30.04 in10.0 miNW (320°)9.2 mphOvercast
8:55 PM34.3 °F27.0 °F74 %30.05 in10.0 miNorth (360°)8.1 mphMostly Cloudy
9:15 PM35.2 °F27.9 °F74 %30.06 in10.0 miNNW (330°)10.4 mphOvercast
9:35 PM34.5 °F27.5 °F76 %30.06 in10.0 miNW (310°)8.1 mphOvercast
9:55 PM35.1 °F28.2 °F76 %30.07 in10.0 miNW (320°)5.8 mphOvercast
10:15 PM36.7 °F29.1 °F74 %30.08 in10.0 miWNW (300°)8.1 mphOvercast
10:35 PM37.0 °F29.8 °F75 %30.09 in10.0 miWNW (300°)6.9 mphOvercast
10:55 PM36.5 °F30.2 °F78 %30.10 in10.0 miNW (310°)6.9 mphOvercast
11:15 PM36.5 °F30.2 °F78 %30.11 in10.0 miNW (310°)5.8 mphOvercast
11:35 PM35.4 °F29.7 °F80 %30.11 in10.0 miNW (310°)5.8 mphMostly Cloudy
11:55 PM31.6 °F27.1 °F83 %30.11 in10.0 miWNW (300°)9.2 mphScattered Clouds
Hourly data recorded from KLXN, located miles away from Miller, Nebraska







STORIES FROM OUR PARTNERS